Regional Weather Roundup
Issued by NWS

Home | Current Version | Previous Version | Graphics & Text | Print | Product List | Glossary On
Versions: 1 2 3 4 5 6 7 8 9 10 11 12 13 14 15 16 17 18 19 20 21 22 23 24 25 26 27 28 29 30 31 32 33 34 35 36 37 38 39 40 41 42 43 44 45 46 47 48 49 50
000
ASUS43 KFSD 200610
RWRSD

WEATHER ROUNDUP FOR SOUTH DAKOTA
NATIONAL WEATHER SERVICE SIOUX FALLS SD
100 AM CDT THU JUL 20 2017

NOTE: "FAIR" INDICATES FEW OR NO CLOUDS BELOW 12,000 FEET WITH NO
SIGNIFICANT WEATHER AND/OR OBSTRUCTIONS TO VISIBILITY.


SDZ001>005-009-010-012>017-200700-
NORTHWEST AND NORTH CENTRAL SOUTH DAKOTA

CITY           SKY/WX    TMP DP  RH WIND       PRES   REMARKS
BUFFALO          N/A     69  58  67 SE8       30.01S
FAITH            N/A     68  62  81 E8        30.05S
MOBRIDGE       CLEAR     71  66  84 NE6       29.99S
$$

SDZ012>016-024>037-041>051-057-063-072>074-200700-
SOUTHWEST AND SOUTH CENTRAL SOUTH DAKOTA

CITY           SKY/WX    TMP DP  RH WIND       PRES   REMARKS
RAPID CTY ARPT CLOUDY    74  59  59 N12       30.08S
PIERRE         MOCLDY    76  71  85 NE12      29.97R
CUSTER         CLOUDY    70  53  54 NE15      30.24S
ELLSWORTH AFB  CLOUDY    76  61  59 N8        30.09S
PHILIP         PTCLDY    75  69  81 NE10      30.00S
PINE RIDGE     CLOUDY    74  65  73 S5        30.06S
SPEARFISH      FAIR      70  57  64 E8        30.14S
WINNER         FAIR      76  66  71 CALM      29.98R
$$

SDZ004>011-016>023-039-040-200700-
NORTHEAST SOUTH DAKOTA

CITY           SKY/WX    TMP DP  RH WIND       PRES   REMARKS
ABERDEEN       CLEAR     70  69  97 N5        29.97S
WATERTOWN      MOCLDY    70  69  97 NE7       29.97S
BROOKINGS      MOCLDY    72  69  90 NE9       29.96R
SISSETON         N/A     65  65 100 NW5       29.95S
$$

SDZ017-020-022-023-036>040-048>070-200700-
SOUTHEAST SOUTH DAKOTA

CITY           SKY/WX    TMP DP  RH WIND       PRES   REMARKS
SIOUX FALLS    CLOUDY    73  72  96 NE9       29.93R
HURON          CLEAR     74  72  93 NE8       29.93F
CHAMBERLAIN    CLOUDY    78  75  90 NE7       29.96R
MITCHELL       CLOUDY    75  73  93 N7        29.94R
YANKTON        CLOUDY    80  68  66 NW12      29.91R
$$

ABBREVIATIONS USED IN REMARKS
   TC - TEMPERATURE IN CELSIUS
  WCI - WIND CHILL INDEX
   HX - HEAT INDEX
  VSB - VISIBILITY




USA.gov is the U.S. government's official web portal to all federal, state and local government web resources and services.